Theta_e
321 324 326 327 326 324 324 323 322 323 325 325 323 327 333 337 337 340 350 351 346 349 356 357 361 365 361 356 357 356 354 352 351 350 351 354 355 353 351 351 350 351 351 353 354 356 357 357 358 358 357 355 354 354 354 353 353 354 354 355 358 358 358 356 354 353 353 354 353 353 353 352 351 350 350 351 349 350 353 354 354 354 354 354 355 355 355
319 320 323 324 324 324 324 324 324 325 326 329 330 334 339 340 338 343 352 353 350 350 352 354 355 355 352 352 353 352 352 353 350 347 348 350 352 352 350 349 349 347 347 349 350 352 352 352 354 355 355 356 355 354 355 354 354 354 355 356 358 358 359 357 354 352 354 358 359 357 356 356 353 352 353 354 350 349 353 355 354 355 354 354 355 355 355
318 320 322 322 324 325 322 323 327 328 328 333 336 338 340 341 341 343 348 350 352 351 349 350 350 350 349 349 349 349 351 351 348 347 348 347 348 349 348 348 349 347 346 347 347 349 349 348 349 350 350 352 354 353 352 352 354 355 355 356 357 357 356 355 353 352 353 358 360 359 357 358 357 355 357 357 354 351 352 354 353 354 354 354 354 353 353
319 320 320 321 323 322 320 324 329 329 328 332 336 338 340 340 340 342 345 349 352 350 347 347 347 347 347 346 347 349 350 349 347 347 348 348 347 347 346 346 348 347 345 346 346 347 348 348 348 349 349 350 350 349 347 346 349 350 351 352 352 352 352 353 354 353 354 358 360 359 357 357 357 357 357 358 358 357 355 353 353 353 353 353 353 352 352
321 320 318 321 322 319 323 332 333 329 332 334 337 339 341 340 342 344 347 350 351 348 346 348 347 345 346 346 347 348 350 350 348 347 349 348 346 346 345 345 346 345 344 345 346 346 345 345 346 347 348 348 348 349 347 347 347 346 346 348 348 346 348 351 353 354 354 357 359 358 358 357 357 356 357 358 358 358 358 356 354 352 352 352 351 350 351
320 322 320 322 323 322 330 340 335 330 335 337 337 340 340 339 342 345 348 351 350 346 346 347 346 344 343 343 342 343 347 349 348 347 346 345 344 344 344 344 345 345 344 344 344 344 343 343 344 344 344 344 344 346 347 349 349 349 350 353 352 350 349 350 351 353 354 355 356 357 357 356 355 355 355 357 357 355 355 356 356 354 354 353 352 351 352
322 325 323 322 325 330 334 337 331 329 334 336 337 338 338 337 340 341 344 347 347 345 345 346 345 342 340 339 338 339 342 345 346 346 345 344 344 344 343 343 343 342 344 344 344 344 344 343 343 343 343 343 343 343 344 344 345 347 349 352 353 353 352 351 352 353 355 355 354 354 354 353 352 352 353 354 354 352 353 353 353 353 353 354 354 353 352
323 326 327 328 333 337 333 332 331 329 329 331 334 336 335 335 337 340 342 345 345 344 344 345 345 344 341 338 336 337 339 341 342 342 341 339 340 340 340 342 342 341 342 343 343 343 342 342 343 343 342 341 341 341 341 341 342 343 344 346 348 349 349 349 350 352 353 354 353 353 353 352 352 352 353 353 352 351 351 350 350 350 350 352 354 355 354
324 324 327 331 335 336 334 334 334 331 328 329 333 337 336 334 334 340 343 343 343 343 342 342 344 344 342 339 337 335 337 339 339 338 335 332 331 331 332 335 337 337 338 339 340 341 341 341 341 340 339 338 338 338 338 339 340 340 341 342 343 345 346 346 347 349 349 350 351 351 351 351 351 351 352 352 351 351 350 349 348 348 350 352 354 354 354
324 325 325 327 332 338 341 339 334 329 328 327 330 338 340 336 333 339 343 342 342 343 342 342 344 344 343 342 337 334 334 336 334 332 331 328 326 326 326 327 329 329 331 333 335 336 337 338 338 338 338 337 337 337 337 336 337 337 337 338 339 342 345 345 345 346 347 347 348 348 348 348 348 349 349 350 350 350 350 350 350 349 351 354 354 354 354
321 323 324 327 334 341 343 338 332 328 329 327 326 338 341 339 336 338 341 342 342 342 342 343 345 347 345 341 337 333 332 331 328 327 328 326 324 325 324 325 326 326 328 329 330 331 331 331 332 334 335 335 335 335 335 335 335 335 335 336 336 338 341 343 344 344 345 346 346 346 347 347 347 347 347 347 348 348 348 349 351 351 353 354 354 353 353
321 322 325 332 337 340 341 337 332 329 328 325 328 338 340 338 337 339 340 342 342 342 342 342 345 348 346 340 336 333 331 328 325 325 326 325 324 325 324 324 324 324 326 326 327 329 329 328 329 329 330 331 332 333 333 333 334 334 334 334 334 335 337 339 340 342 343 344 344 344 345 346 346 347 347 347 348 348 347 348 349 349 350 350 350 350 350
324 325 330 336 337 336 336 335 330 329 331 332 335 340 341 338 338 340 340 341 341 342 342 341 342 343 341 337 334 331 331 330 327 325 324 323 323 323 322 323 323 323 324 324 325 326 328 329 328 327 327 328 329 329 330 330 331 332 332 332 333 333 334 334 336 338 341 341 342 343 344 344 344 345 346 348 348 347 347 347 347 346 346 346 346 347 347
326 329 333 336 335 332 332 334 331 331 338 339 337 339 339 336 338 340 339 340 341 340 340 339 338 336 335 333 332 331 330 330 328 326 325 324 323 322 322 323 323 323 323 323 323 324 326 327 328 327 327 328 328 328 329 328 328 328 329 330 330 331 332 333 334 336 338 338 338 341 343 343 343 343 345 346 346 345 345 345 345 343 343 343 344 345 344
326 329 333 336 335 332 332 335 333 333 338 339 336 336 337 337 338 339 339 340 340 338 337 336 335 335 334 332 331 330 329 328 327 326 325 325 324 324 324 324 324 324 324 323 323 323 323 325 327 327 327 327 327 327 327 328 328 327 326 325 325 326 328 330 332 334 335 335 336 337 339 341 341 342 343 345 346 345 345 344 343 341 341 342 341 340 339
328 329 332 336 335 333 333 336 335 335 337 337 335 336 337 337 338 339 339 340 340 338 337 336 334 335 334 332 330 329 327 326 325 324 322 322 323 324 324 324 324 323 324 325 324 323 323 324 326 326 325 325 325 324 325 327 328 328 328 326 324 324 325 326 328 330 330 330 332 334 335 336 337 338 339 341 342 343 345 345 344 341 341 340 337 334 333
330 332 333 334 333 332 332 334 334 333 333 333 333 334 335 337 338 339 339 340 339 339 338 337 335 335 334 332 329 327 325 324 324 322 320 319 321 323 322 322 321 322 323 325 324 324 325 325 324 323 323 324 323 322 324 326 327 327 327 326 325 325 325 325 326 326 325 325 328 330 331 332 333 334 333 333 333 333 337 341 343 343 342 338 335 332 330
332 332 332 333 332 331 330 331 333 333 331 331 333 333 335 337 337 338 340 340 339 340 339 338 338 336 335 334 331 327 325 324 323 322 320 319 320 321 320 320 320 320 321 323 325 325 325 325 324 322 322 322 322 322 323 324 326 326 325 325 325 324 324 325 325 324 324 324 326 327 327 329 330 329 328 328 326 326 327 331 335 340 342 340 337 335 334
334 333 332 332 331 331 332 332 333 332 331 331 334 335 336 336 337 338 339 339 339 339 339 339 339 337 337 338 336 331 326 324 322 321 320 319 320 321 321 322 322 320 319 320 323 324 324 324 324 323 321 320 319 321 322 323 324 324 324 325 325 324 324 325 326 327 326 325 324 324 324 325 327 326 323 322 321 320 320 322 326 333 337 338 339 338 337
337 335 334 332 331 332 333 333 332 333 333 333 334 335 336 336 336 335 335 336 338 338 337 338 339 337 337 337 337 334 329 324 322 320 319 319 321 323 323 324 324 323 320 318 320 322 322 322 321 320 320 319 316 315 317 319 320 321 323 324 325 324 323 325 326 327 327 325 324 324 323 323 324 321 318 317 316 314 314 316 321 328 332 333 335 336 334
336 334 333 333 333 332 332 332 332 333 334 334 334 334 333 334 335 334 333 334 335 336 335 336 336 337 337 335 334 335 332 327 323 322 320 321 323 324 325 325 324 324 322 319 319 320 320 320 319 318 318 318 317 316 316 315 316 320 323 325 324 322 322 324 325 325 325 324 324 324 323 322 321 318 315 314 313 312 312 312 315 322 328 330 332 333 332
334 335 336 336 336 336 333 331 331 332 333 334 335 333 332 333 334 335 334 334 333 333 333 333 334 336 336 333 332 333 332 329 325 323 322 323 324 325 325 325 324 324 323 322 320 318 316 316 317 317 317 318 318 319 319 318 318 321 324 325 323 320 320 323 324 324 325 325 324 324 323 323 322 320 318 316 315 315 315 313 312 315 321 325 328 330 329
335 336 336 336 337 338 335 331 330 331 332 335 335 333 333 332 331 333 335 336 335 334 333 331 332 334 333 331 331 331 331 329 326 324 323 324 325 325 325 326 326 326 325 324 322 319 316 314 314 315 316 317 317 318 320 321 321 322 323 324 322 321 320 321 322 323 324 324 325 325 325 325 324 324 322 319 319 319 318 316 315 315 317 319 321 322 322
334 334 335 336 336 336 334 332 332 331 330 333 334 333 333 332 328 328 332 333 333 334 334 332 331 332 332 330 330 331 330 330 328 326 325 326 327 327 327 327 327 325 324 324 323 321 319 318 316 315 314 316 316 316 317 320 320 320 321 322 322 322 322 322 323 323 322 322 323 324 324 324 324 325 324 322 320 320 319 319 318 317 317 317 317 317 316
333 333 335 335 335 335 334 333 332 329 326 329 332 331 329 327 323 324 328 328 326 329 333 333 331 332 331 330 330 330 329 329 329 329 328 328 329 329 327 326 325 323 323 324 322 320 320 320 319 317 317 317 316 314 314 317 319 319 318 319 321 322 322 323 323 323 322 322 322 322 323 323 323 325 326 325 324 322 321 320 320 320 319 318 318 317 317
336 336 334 331 329 331 332 332 331 329 326 327 330 329 326 323 321 322 325 326 324 325 329 331 331 330 330 330 330 330 329 329 329 330 330 329 329 328 326 325 324 323 324 324 322 321 320 320 320 319 318 317 317 316 314 314 316 316 314 315 318 321 321 321 321 321 322 322 322 322 322 322 322 322 323 324 324 325 323 322 321 320 319 318 318 318 318
336 335 333 329 328 329 332 332 331 329 326 324 326 327 325 323 323 323 324 324 324 324 325 327 328 328 328 328 328 328 328 328 329 329 329 329 328 328 326 325 325 324 324 323 321 321 321 320 320 320 319 318 319 318 315 312 314 314 314 315 317 318 319 319 319 320 319 320 320 320 320 320 321 321 321 322 323 325 325 325 324 323 320 318 318 318 318
335 332 330 331 331 331 331 329 328 327 325 322 322 323 323 324 324 325 326 326 325 324 324 325 326 326 326 326 327 327 328 328 328 329 329 328 328 327 326 325 325 325 324 323 321 321 322 321 319 320 320 319 319 319 316 315 316 317 317 317 317 317 316 315 316 316 315 315 315 316 317 319 320 321 321 321 321 322 323 323 323 324 321 318 317 317 318
336 333 331 333 332 329 328 327 327 327 326 322 320 319 320 322 323 325 327 327 325 325 326 325 325 325 324 324 325 326 327 327 328 328 328 328 328 328 326 325 325 325 324 323 322 322 323 322 320 320 320 319 319 319 318 317 318 319 318 317 318 317 313 310 311 314 315 314 315 316 317 318 320 319 319 320 320 320 320 319 319 321 322 320 318 319 319
336 334 333 332 330 328 328 329 329 328 326 324 322 320 320 322 322 322 323 322 320 322 324 323 322 322 321 321 322 324 325 326 327 327 326 326 326 326 326 325 324 324 324 324 323 323 323 322 321 321 321 319 319 319 318 317 318 318 316 316 317 317 312 308 310 315 316 315 315 316 316 317 318 318 318 319 319 318 319 319 319 321 322 320 318 317 316
334 333 333 332 329 328 329 331 330 328 325 324 324 322 321 322 323 323 324 323 319 319 320 320 318 318 319 319 320 320 321 322 325 326 326 325 324 324 324 324 324 323 324 324 324 323 324 323 322 322 321 320 319 318 318 318 318 317 315 315 317 316 312 309 311 315 316 315 315 316 316 316 317 317 318 318 317 317 317 318 319 319 319 317 315 313 312
332 332 332 332 329 327 329 331 330 328 327 326 325 324 322 322 323 323 324 324 321 319 318 318 317 318 318 317 317 317 318 318 319 321 323 324 324 323 323 323 324 323 324 324 324 324 324 324 323 322 321 321 319 318 318 318 319 318 317 317 317 316 313 311 310 311 314 315 315 317 317 316 315 316 317 316 316 316 316 316 317 317 316 313 311 310 310
332 332 331 331 330 329 330 330 328 328 329 328 325 323 321 320 319 320 321 320 319 318 318 319 318 318 317 317 317 317 317 317 317 318 319 321 323 324 323 323 324 324 324 324 324 324 324 324 323 322 321 321 319 318 317 318 318 318 318 317 316 316 315 313 310 311 314 315 316 316 315 314 314 315 315 315 315 315 315 315 315 315 314 311 310 309 309
333 332 331 331 330 329 330 331 330 328 327 325 322 320 320 319 319 320 319 319 319 319 319 318 318 317 317 317 317 317 317 317 318 318 318 319 321 323 323 323 323 323 324 324 324 324 323 324 323 322 322 321 319 318 317 318 317 317 318 317 316 317 317 314 312 312 315 315 315 313 313 313 314 314 314 314 314 314 314 314 314 314 313 311 309 309 309
326 328 327 325 325 325 325 327 327 326 325 325 324 322 320 320 319 319 319 319 319 319 318 318 317 318 317 317 317 317 317 317 317 317 318 318 318 319 321 323 324 324 323 323 324 324 324 323 323 323 322 321 319 318 318 318 317 317 317 317 316 316 316 315 313 314 315 314 313 313 313 314 314 313 312 312 312 312 313 312 312 312 312 311 309 309 308
323 327 327 324 322 323 322 322 323 323 323 323 323 322 320 320 319 319 319 319 318 318 318 317 317 317 317 317 317 317 317 317 317 317 317 317 316 316 317 321 324 324 323 323 323 323 323 323 323 323 322 321 319 318 318 317 316 316 316 316 316 315 314 314 314 314 314 313 313 313 313 312 312 311 310 310 311 311 311 310 310 309 309 308 308 308 308
323 326 327 325 323 323 323 322 322 322 321 321 321 320 320 319 319 318 318 317 317 316 315 315 315 316 316 316 315 315 314 315 315 316 316 316 317 316 317 320 323 324 323 323 322 321 321 322 322 322 320 319 318 318 318 317 316 315 315 315 315 314 313 313 313 313 313 312 312 312 311 310 310 311 310 310 310 310 309 309 309 308 308 307 307 307 307
324 323 324 324 323 322 323 322 321 320 320 319 319 318 317 317 316 316 316 315 315 314 314 314 314 315 314 314 315 315 314 315 315 316 316 316 316 316 316 318 320 321 322 322 322 321 320 321 322 321 319 318 318 318 317 316 315 315 314 314 314 313 312 312 312 313 313 312 311 311 310 310 310 310 310 309 309 309 308 307 307 306 306 306 306 306 306
325 324 323 322 321 321 320 319 319 318 317 316 316 316 315 315 315 314 314 314 314 314 313 313 314 313 314 314 315 315 316 316 316 317 317 316 315 314 314 315 316 317 318 319 320 320 320 321 321 321 319 318 317 317 316 315 314 313 313 312 311 311 311 311 311 312 313 312 311 310 310 309 309 309 308 308 308 307 307 306 306 305 305 305 305 304 304
325 324 322 321 320 320 318 317 317 316 315 315 315 315 315 314 314 313 313 313 314 313 313 313 314 314 315 315 315 315 316 316 316 316 317 315 313 313 313 313 313 314 315 315 317 318 319 320 320 320 318 317 316 316 315 314 312 311 311 310 310 310 310 310 310 311 311 311 310 309 308 307 307 307 307 306 306 306 305 305 305 304 304 304 303 303 303
324 322 321 319 318 317 316 316 316 315 315 315 314 313 313 313 313 313 313 313 313 313 313 313 314 314 315 315 315 315 315 315 315 316 316 314 312 313 313 313 313 313 314 315 317 317 317 318 318 317 316 315 314 314 313 312 311 311 311 310 309 309 309 310 309 309 309 309 309 308 307 307 307 306 306 305 305 305 305 304 304 303 303 303 302 302 302
322 320 318 317 316 315 315 315 315 314 314 314 313 312 312 312 312 313 313 313 313 313 313 313 314 314 314 314 315 315 315 315 315 315 314 313 313 314 314 314 314 314 314 315 317 317 317 317 317 315 314 313 312 312 311 310 310 311 311 310 309 308 309 309 309 308 307 307 307 306 306 305 305 305 305 304 304 304 304 303 303 302 302 302 302 301 301
319 318 317 316 315 315 315 314 313 313 313 312 312 312 312 312 312 312 312 312 313 313 313 313 313 313 313 313 313 314 314 313 314 314 313 312 312 313 314 314 314 314 314 315 316 315 315 314 314 313 311 311 311 311 310 309 308 307 307 307 307 307 307 307 307 306 306 306 305 305 304 304 304 303 303 303 303 303 302 302 302 302 301 301 301 300 300
317 316 316 316 315 314 314 313 313 312 312 312 312 312 312 312 311 312 312 312 313 313 313 313 313 313 313 313 313 313 313 312 312 313 313 312 311 311 312 313 313 313 313 314 314 313 312 312 312 311 311 310 309 309 308 307 306 305 306 306 306 306 306 305 305 305 304 304 304 304 304 303 303 302 302 302 302 301 301 301 301 301 300 300 300 300 299
316 316 315 315 314 313 313 312 312 312 312 312 311 312 312 312 312 312 312 312 312 312 313 313 313 313 313 312 312 312 312 311 311 312 313 312 310 309 309 310 310 311 311 312 312 311 310 310 310 310 309 309 308 307 306 305 305 305 306 306 305 305 304 304 304 304 303 303 303 303 302 302 302 302 301 301 301 300 300 300 300 300 299 299 299 299 298
316 315 313 313 313 312 312 312 312 311 311 312 312 312 312 312 312 312 312 312 312 312 312 312 312 313 312 312 312 311 311 310 310 310 311 310 310 309 308 308 308 307 307 308 309 309 309 309 309 308 307 307 306 306 305 305 304 304 305 305 304 304 303 303 303 302 302 302 302 301 301 301 301 301 300 300 300 299 299 299 299 299 299 299 299 298 298
315 314 312 312 312 312 312 312 311 311 312 312 313 313 312 312 311 311 311 311 312 312 312 312 312 312 312 311 311 311 310 309 309 309 308 308 308 307 306 306 306 305 305 306 306 306 306 306 307 306 306 306 305 305 304 304 303 304 304 304 303 303 303 302 302 302 302 301 301 301 301 300 300 299 299 299 299 299 299 298 298 298 298 298 298 298 297
315 314 313 312 312 312 311 311 312 312 313 312 312 312 311 311 311 310 310 311 311 311 311 311 311 311 310 310 310 310 310 309 308 308 307 307 307 306 305 305 305 305 305 304 303 303 303 303 303 304 305 305 305 305 304 303 303 303 303 303 303 302 302 302 301 301 301 301 300 300 300 299 299 299 299 299 299 298 298 298 298 298 298 298 298 297 297
313 313 312 311 311 311 311 312 312 313 312 312 312 311 311 310 310 310 310 310 311 311 311 311 310 310 310 309 309 309 309 308 308 307 307 306 306 306 305 305 305 305 304 303 303 302 301 299 300 302 303 303 303 303 303 303 303 303 302 302 302 301 301 301 301 301 300 300 300 299 299 299 299 298 298 298 298 298 298 298 298 297 297 297 297 297 297
312 312 312 311 311 311 311 311 312 312 312 312 312 311 311 310 310 310 310 310 310 310 310 310 310 309 309 309 308 308 308 307 307 307 306 306 305 305 304 304 304 304 304 303 302 302 301 299 298 299 301 301 301 302 302 302 302 302 301 301 301 301 300 300 300 300 300 299 299 299 299 299 299 299 298 298 298 298 298 298 298 297 297 297 297 296 297
312 311 311 311 311 310 310 311 311 312 311 312 312 311 311 310 310 309 309 310 309 309 309 309 309 309 309 308 308 307 307 307 307 306 306 305 304 304 303 304 303 303 303 302 302 302 302 300 298 297 299 300 301 302 302 301 301 301 301 300 300 300 300 300 300 300 299 299 299 299 299 299 299 299 299 298 298 298 298 298 297 297 297 297 297 297 297
310 310 310 310 310 310 310 311 311 311 311 311 311 311 310 310 310 309 309 309 309 309 309 308 308 308 308 307 308 307 307 307 306 306 305 305 304 303 303 303 303 303 303 303 302 301 300 299 298 297 299 300 301 302 302 301 300 300 300 300 300 300 300 300 299 299 299 299 298 298 299 299 299 299 298 298 298 298 298 298 297 297 297 297 297 297 297
Wind_Speed
8 6 7 8 6 6 9 11 11 11 10 10 8 9 12 11 8 3 3 5 10 6 1 4 7 4 3 6 6 5 5 5 6 8 7 5 5 6 5 4 4 5 4 4 5 1 8 15 19 20 19 19 17 15 14 16 16 15 15 15 14 12 13 13 12 11 11 12 10 10 13 16 18 16 12 12 13 17 23 24 23 22 21 20 19 19 18
10 9 9 6 5 3 7 9 10 13 13 14 12 11 12 11 10 8 5 9 12 8 4 4 6 6 6 6 6 5 6 6 7 8 9 8 6 3 2 4 4 3 4 4 7 10 11 9 11 12 11 14 17 18 16 14 12 11 10 10 10 11 8 6 5 1 5 2 3 5 6 8 12 12 9 6 6 10 17 21 20 20 20 19 18 17 17
6 9 10 7 4 4 3 5 10 12 13 14 14 12 11 10 10 11 10 8 7 6 6 5 5 8 8 8 9 7 5 6 7 6 6 6 6 6 6 4 2 4 5 7 8 11 14 14 13 12 10 7 7 8 10 10 9 8 7 5 5 6 4 4 9 8 4 3 2 5 6 7 9 10 8 6 6 7 12 15 15 16 17 17 17 15 14
4 8 9 8 6 2 3 6 10 11 10 10 10 9 9 8 8 9 10 6 3 3 5 7 7 8 8 8 9 7 4 5 6 4 4 5 5 7 7 7 5 6 6 6 8 11 15 14 13 11 9 9 10 8 4 3 5 5 5 5 6 4 1 1 8 12 11 10 12 12 11 8 9 11 9 7 6 6 8 10 12 13 14 15 15 14 13
4 7 8 8 4 2 4 2 4 7 8 7 8 8 9 9 6 6 5 1 2 3 5 8 9 9 7 6 7 8 6 5 5 5 7 9 8 8 8 6 6 7 8 8 10 13 16 17 16 15 13 14 15 10 3 2 2 3 3 3 3 3 2 2 6 10 13 17 19 17 14 10 10 12 12 12 10 7 7 8 9 11 12 13 14 14 13
3 7 8 6 3 4 1 3 1 5 5 8 10 9 9 10 7 4 3 2 2 4 7 9 10 9 8 8 8 9 8 5 5 7 9 9 8 8 8 7 7 8 11 11 12 15 18 17 16 15 12 13 16 13 9 6 3 1 2 1 2 3 4 6 8 11 14 17 18 15 13 12 11 12 13 14 12 9 8 7 6 8 8 9 11 11 11
2 5 6 4 3 1 1 4 4 5 7 11 12 10 10 10 9 6 6 6 6 7 7 7 8 9 8 9 10 11 11 8 7 8 9 9 8 8 8 8 9 11 12 11 11 14 15 13 14 16 15 14 16 15 13 13 13 9 5 3 3 4 7 9 12 14 15 15 15 13 12 13 14 14 14 15 13 11 10 9 7 7 7 7 9 10 10
0 2 3 1 1 3 4 6 8 8 7 7 7 8 10 11 9 8 8 9 8 7 5 4 3 5 7 9 10 11 11 10 9 9 10 9 8 8 9 9 10 12 13 13 13 14 15 16 17 17 17 18 19 20 18 17 16 13 9 7 5 4 5 6 8 11 12 13 13 11 11 12 12 13 13 14 14 14 15 14 12 10 8 8 9 10 11
0 2 1 2 2 3 5 5 7 8 7 5 3 6 5 10 10 9 8 9 9 7 4 3 3 3 4 6 8 11 10 8 10 11 11 11 10 11 14 16 16 16 15 14 13 13 14 18 19 19 20 21 23 23 22 20 18 16 15 13 10 6 5 5 5 5 6 7 9 9 10 10 11 11 12 12 13 14 15 16 16 14 12 11 11 11 12
0 1 0 2 3 0 3 4 9 9 8 8 5 6 2 8 10 10 8 8 8 7 6 3 1 1 4 5 6 10 11 7 9 11 13 14 15 15 16 19 22 23 22 20 19 17 17 17 18 18 19 21 23 23 23 22 21 21 20 18 15 11 9 7 6 5 4 3 4 5 6 6 6 8 9 10 12 13 13 13 13 13 12 12 12 12 13
2 2 1 2 2 2 4 6 9 8 8 9 6 5 2 6 7 8 7 6 6 5 5 4 3 4 4 3 2 5 8 7 10 10 11 14 16 16 17 19 20 21 22 23 24 23 22 21 20 19 18 20 21 22 21 22 22 21 21 19 16 15 13 10 9 8 6 6 5 3 2 1 0 1 3 4 6 8 11 11 11 11 12 13 12 12 12
3 0 1 2 2 1 3 6 7 7 7 6 5 4 1 5 6 6 5 5 4 4 4 3 3 3 4 4 4 2 0 4 11 12 9 11 14 15 16 18 20 21 22 23 23 22 21 21 22 23 23 23 22 21 21 21 21 19 18 18 17 16 15 12 11 10 9 8 7 6 5 4 2 2 2 1 2 5 7 8 9 10 11 11 12 12 12
3 3 3 2 2 1 4 5 7 8 5 4 5 2 3 2 5 5 4 4 4 3 3 3 1 2 4 6 6 5 3 3 9 13 13 14 15 16 17 18 20 21 22 22 22 22 21 21 22 23 25 26 24 21 20 19 18 16 15 16 16 16 15 15 13 12 11 10 8 6 5 3 1 2 3 2 3 4 5 5 6 6 5 4 6 9 11
2 3 3 2 2 2 5 4 7 8 4 3 3 2 3 3 4 3 4 3 4 4 4 3 4 5 7 8 7 5 4 4 7 10 13 14 16 17 18 19 19 20 20 20 20 20 19 20 20 21 24 25 23 21 20 17 14 12 13 15 15 14 14 15 16 15 12 10 9 9 8 6 3 3 2 1 2 4 6 7 8 8 8 8 7 7 7
1 3 3 2 1 3 5 4 6 7 3 3 3 2 4 5 4 3 3 3 4 6 5 5 6 7 8 8 7 6 6 6 8 10 12 13 14 15 16 17 17 18 18 18 18 17 17 18 18 19 21 22 21 20 20 17 13 11 11 13 14 14 14 13 14 15 13 12 10 11 12 11 9 8 6 4 4 5 6 8 10 11 12 13 13 13 12
1 3 2 2 3 3 6 5 4 3 3 4 3 4 5 4 3 3 3 4 4 5 6 6 6 6 6 7 7 7 6 6 8 10 12 14 15 15 16 16 16 18 18 16 16 15 16 17 16 17 19 20 19 18 17 15 14 13 13 12 12 12 12 11 10 11 13 13 13 12 12 12 12 12 12 11 10 7 5 7 9 12 13 13 15 17 17
2 3 3 4 5 5 5 5 5 5 6 6 6 6 5 4 3 2 2 3 4 5 6 6 6 5 6 6 6 7 6 6 8 10 11 13 14 15 15 16 16 17 17 16 15 15 14 15 15 16 17 17 16 15 13 13 14 15 14 14 13 12 11 10 9 10 12 14 15 15 14 13 15 16 16 15 15 15 12 8 7 12 14 15 16 18 19
4 4 4 5 6 6 6 6 6 7 7 6 6 6 5 4 4 3 4 4 4 4 5 5 5 5 5 6 6 7 7 6 7 9 10 11 12 12 12 13 13 14 14 14 13 13 13 14 15 14 15 15 14 12 10 11 13 14 14 16 15 13 11 10 8 8 9 10 11 14 15 15 16 17 17 16 17 18 18 17 12 9 12 14 16 17 17
4 3 3 5 7 7 6 6 6 6 7 6 5 5 5 4 4 4 5 5 4 4 5 5 5 5 5 5 6 7 7 6 8 9 9 9 9 9 9 9 10 12 13 12 12 12 12 12 12 13 13 13 12 11 11 11 11 12 13 14 14 12 11 11 10 10 8 6 7 8 11 13 15 17 17 17 18 21 21 20 18 15 13 12 12 14 15
4 3 2 5 8 7 5 5 5 5 6 6 5 5 5 5 5 4 5 5 5 5 4 5 5 5 5 5 5 6 6 7 9 11 10 9 9 8 7 7 7 9 11 11 10 10 11 11 11 12 11 10 9 10 10 10 10 11 11 11 11 11 10 9 12 13 11 10 8 7 7 7 8 12 15 15 15 17 18 18 17 17 17 17 16 16 17
4 3 2 5 7 6 5 6 5 5 5 5 5 5 6 6 6 5 5 5 6 6 5 5 5 5 5 5 5 5 5 7 10 13 13 12 11 10 8 7 7 7 8 8 8 7 7 9 10 10 10 9 8 8 7 8 9 9 8 7 7 9 10 10 11 12 12 12 11 9 8 7 6 8 12 12 11 10 11 14 15 13 13 15 15 15 15
3 2 2 4 5 3 3 4 4 4 5 5 5 5 6 6 5 5 5 5 6 6 5 6 6 5 5 6 6 5 5 8 13 14 14 13 12 11 9 7 7 7 7 7 7 6 5 6 7 7 8 8 8 6 5 5 5 5 6 7 6 5 6 9 13 13 13 14 13 10 10 10 10 9 10 10 9 9 10 12 13 11 10 11 10 10 10
3 4 4 5 5 4 4 4 3 3 5 5 5 5 5 5 5 6 5 4 3 4 4 4 6 6 6 8 8 4 3 7 13 15 14 13 12 11 10 9 9 9 8 7 7 6 4 4 5 5 5 6 5 4 2 3 4 6 9 10 9 6 5 7 11 11 10 12 13 11 9 9 9 8 8 9 9 10 12 13 13 11 10 10 9 8 8
4 5 6 5 4 4 5 5 5 4 5 6 6 5 5 5 6 6 5 3 3 4 5 4 4 6 8 10 10 6 3 4 8 11 11 11 11 10 9 10 10 10 9 9 8 7 5 4 4 4 4 4 3 2 1 1 3 7 10 12 12 10 7 8 9 9 8 8 8 8 9 10 9 6 4 6 7 8 10 12 12 12 12 12 11 10 10
5 5 4 3 4 6 6 5 6 6 6 7 6 5 6 5 5 4 4 4 6 4 5 5 3 3 5 7 9 9 9 7 6 7 8 7 7 8 9 10 10 9 9 9 8 7 7 5 4 4 4 4 3 2 2 2 2 5 7 9 10 9 8 9 9 9 9 9 7 5 5 6 9 7 3 2 1 4 7 8 9 10 11 12 11 11 11
6 6 5 3 2 4 5 6 5 5 6 8 7 5 5 4 2 2 5 6 6 7 5 5 5 3 4 5 6 8 10 9 6 6 7 6 6 7 8 10 10 10 9 9 9 8 8 6 5 5 5 4 4 3 3 3 4 4 5 6 6 6 6 6 7 8 9 9 8 8 6 2 6 8 5 1 3 4 7 7 7 9 9 9 10 10 11
5 5 6 4 2 2 5 6 7 5 6 8 8 8 10 9 4 2 6 8 6 5 5 5 5 5 4 4 5 6 8 7 6 8 8 7 6 6 6 8 9 10 9 9 9 9 9 8 8 6 6 6 5 4 3 5 7 7 6 6 6 5 5 4 5 5 5 5 5 6 7 6 4 6 4 4 4 1 5 6 7 8 8 8 9 10 10
4 4 5 4 3 3 5 7 9 8 7 7 5 5 9 11 9 6 6 7 6 6 7 6 5 5 4 2 3 6 7 7 6 7 8 7 7 7 7 6 7 8 10 10 10 9 10 11 10 8 8 9 8 6 5 7 9 8 6 5 4 2 3 2 2 2 4 5 5 4 5 6 5 4 4 5 6 6 5 4 4 6 8 9 10 10 9
5 5 5 5 5 6 7 6 6 6 6 6 4 2 4 6 3 1 3 7 7 8 9 7 4 3 3 2 1 4 7 8 8 9 9 10 11 11 11 10 9 9 11 13 13 11 12 13 12 11 12 11 9 9 7 7 7 6 5 6 7 3 2 2 2 3 4 4 5 5 5 5 5 5 6 5 6 7 6 6 5 4 9 11 11 10 7
6 5 5 5 5 6 5 4 4 4 3 5 5 3 3 5 4 4 3 4 4 3 7 10 7 4 3 2 1 2 2 4 6 7 9 10 12 13 13 11 11 12 14 15 15 14 14 15 14 14 15 13 12 12 11 8 7 7 6 8 8 2 2 1 5 6 3 2 2 4 4 5 4 5 5 5 5 6 7 7 8 11 15 14 12 10 8
7 6 6 5 4 4 4 4 5 4 2 3 3 1 1 4 5 2 1 3 2 2 5 8 6 3 3 3 2 1 1 2 3 5 6 7 8 11 12 12 13 15 16 16 17 17 17 17 16 15 15 15 15 15 13 11 10 9 9 10 8 3 1 3 6 6 4 3 2 2 3 4 4 4 4 5 5 7 9 10 12 16 17 14 11 11 11
7 7 6 5 4 3 4 4 5 4 3 4 4 2 2 1 2 2 2 3 2 2 4 5 3 2 2 2 1 2 3 5 5 5 6 6 7 8 11 13 15 16 16 16 17 18 17 18 19 17 16 16 17 16 14 14 12 11 12 12 9 6 5 4 4 6 6 4 3 3 4 5 5 5 6 7 7 7 9 11 12 13 13 13 12 12 12
7 6 5 6 5 4 4 4 4 4 5 5 4 3 3 2 1 2 2 3 3 3 3 2 2 1 1 2 3 4 7 8 9 9 8 8 9 10 11 13 15 16 17 17 17 18 18 19 20 19 17 17 18 17 15 15 14 12 13 13 11 9 8 5 5 7 7 5 4 5 5 3 3 5 8 9 9 8 9 10 11 11 11 13 14 13 12
6 6 6 6 7 6 5 5 5 4 4 4 3 3 3 2 2 2 4 4 4 3 3 3 4 4 5 6 7 8 8 8 7 8 9 8 9 10 11 12 14 16 17 17 16 17 19 20 20 19 18 18 18 17 17 16 15 13 12 12 11 11 9 8 7 7 8 7 7 5 4 4 4 4 5 6 7 8 8 8 9 10 11 12 13 12 10
5 5 7 8 7 6 5 4 4 4 3 2 2 2 2 2 2 2 1 1 3 4 5 5 6 7 7 8 9 9 9 8 8 9 9 7 7 7 8 10 13 15 16 16 16 18 20 21 21 21 21 21 21 21 20 19 17 14 12 11 11 10 10 8 6 7 9 9 8 6 7 7 5 3 1 2 4 6 6 7 9 11 12 11 11 10 8
6 5 8 9 7 7 6 4 4 4 4 3 3 4 4 3 2 1 2 3 4 5 5 5 6 6 6 6 7 7 8 9 9 10 10 9 8 9 9 8 11 13 14 16 17 17 18 20 23 24 23 20 20 21 20 19 18 16 13 12 12 10 8 6 5 7 9 9 8 8 7 6 4 3 3 3 4 4 5 7 10 12 12 11 10 10 9
9 8 9 8 8 8 7 6 5 4 4 3 2 1 0 1 1 2 2 3 4 5 6 6 6 6 7 8 10 12 13 12 12 12 12 11 10 10 11 9 10 12 13 15 16 16 18 21 22 21 18 17 17 18 18 18 20 19 17 16 15 13 9 6 6 7 8 7 7 7 6 4 5 6 5 4 5 6 8 9 8 8 8 8 8 9 9
11 12 11 10 9 8 7 7 6 4 3 2 2 1 2 2 2 3 4 5 6 6 6 6 6 6 8 10 11 12 13 12 10 10 10 10 10 9 8 7 6 6 8 11 13 14 17 19 19 17 15 16 18 18 16 16 17 18 18 16 14 13 10 6 7 9 11 10 9 8 6 5 6 5 4 5 8 9 10 9 6 4 5 6 7 8 10
10 11 12 10 9 8 7 7 6 5 4 4 5 5 5 5 5 5 5 6 6 5 5 6 6 8 9 9 9 9 8 8 8 9 9 9 10 9 8 8 8 8 8 10 11 13 16 18 19 18 17 17 19 20 18 15 15 16 15 13 10 10 8 5 7 9 13 13 12 11 9 7 6 5 5 8 9 8 7 6 4 4 6 6 6 8 9
8 9 10 10 8 8 8 8 8 7 6 6 6 6 6 6 6 6 6 6 7 7 7 7 7 7 7 7 8 9 9 10 10 9 7 8 9 8 8 9 10 10 10 10 12 15 16 16 16 16 16 18 21 22 22 20 18 16 14 10 9 8 5 5 3 6 12 14 12 10 8 6 6 5 6 8 8 6 5 5 4 6 8 7 6 7 9
9 10 10 10 10 10 10 9 7 6 6 6 5 5 5 6 6 6 6 6 7 7 7 7 7 7 7 7 8 8 10 11 9 7 6 7 8 7 8 10 10 9 9 9 11 14 15 14 14 15 18 22 23 21 19 19 18 15 10 7 6 7 5 7 4 5 9 10 10 8 5 5 6 6 5 6 6 5 5 5 5 7 7 5 4 5 6
10 12 12 11 10 9 8 7 6 5 5 4 3 3 3 3 4 5 6 6 6 6 7 7 7 7 7 7 8 8 9 9 7 5 5 6 5 5 7 7 7 6 6 7 8 8 9 11 14 17 19 20 18 15 13 12 11 9 9 10 10 9 8 8 7 7 8 9 10 9 7 7 8 7 7 7 6 4 5 6 7 7 5 4 4 5 4
12 12 11 9 8 8 8 7 6 5 4 2 1 1 2 2 3 5 6 5 5 6 7 7 7 7 6 6 7 7 7 7 7 5 3 1 2 3 3 3 3 3 4 5 6 8 9 12 15 17 17 16 14 11 10 9 7 7 9 11 11 10 9 8 9 10 9 7 7 6 6 7 7 7 6 6 5 4 5 7 8 7 6 6 6 5 4
13 11 10 9 9 9 8 6 5 3 3 3 3 2 2 2 3 4 4 4 4 5 5 5 6 7 6 5 5 5 6 7 7 4 2 2 3 3 2 2 3 4 7 9 10 10 10 11 12 14 15 14 13 11 10 9 8 8 10 11 11 10 10 10 10 10 8 5 4 5 7 7 6 5 5 4 4 6 7 7 7 7 6 6 5 5 4
12 12 11 11 9 7 5 4 4 4 4 3 1 3 4 4 3 2 2 2 3 4 4 4 4 5 5 4 3 3 3 4 5 4 1 4 4 3 2 3 4 6 9 11 13 13 13 13 13 15 15 14 13 13 13 10 6 5 8 11 11 10 10 9 8 7 7 6 5 7 8 7 5 5 4 4 4 6 6 7 8 8 7 5 4 5 5
13 14 12 9 7 6 5 4 4 3 2 4 6 6 4 3 1 0 1 2 2 3 4 3 3 3 3 1 4 5 4 5 6 6 4 4 5 3 3 4 6 7 8 11 13 15 15 15 15 16 16 14 12 11 11 8 3 3 6 9 10 9 9 8 7 7 5 3 4 6 7 6 5 5 6 7 7 6 4 4 6 7 6 4 3 3 3
14 13 11 9 8 7 6 5 4 5 6 7 6 4 4 4 2 1 2 2 2 3 3 3 3 3 2 2 4 5 5 5 6 6 5 3 3 4 5 7 7 7 8 10 11 11 11 11 11 11 12 13 11 9 9 7 5 3 4 5 5 5 7 8 7 7 5 4 5 7 7 5 5 6 6 7 7 5 3 3 4 4 3 2 2 3 4
14 13 12 11 9 7 7 7 7 8 8 5 2 4 5 5 3 2 3 3 4 4 5 5 5 4 3 3 3 3 4 4 5 5 3 3 3 4 4 5 6 7 7 8 9 8 6 5 5 6 7 8 8 9 10 8 5 4 5 7 6 5 7 9 10 8 4 4 5 6 5 3 2 4 4 5 4 3 3 3 4 2 1 1 3 5 4
12 13 13 12 10 9 8 8 7 6 5 5 5 6 5 3 1 2 3 3 4 6 7 6 5 3 3 3 4 4 3 2 3 5 6 5 4 2 1 2 3 4 5 6 7 6 4 2 2 4 5 5 7 9 8 5 2 2 6 9 8 6 7 10 10 6 3 4 5 4 3 4 4 2 2 3 3 3 4 5 5 4 3 2 4 5 4
10 10 11 11 11 10 7 5 3 4 6 7 7 6 4 3 3 4 5 4 4 6 8 7 5 4 4 4 4 4 4 3 5 6 6 6 4 3 2 3 3 3 3 3 4 4 2 1 0 4 8 10 10 7 4 3 3 7 10 10 8 6 6 7 7 6 6 8 8 6 4 5 5 4 3 4 4 3 3 4 5 5 5 4 2 2 3
11 10 9 9 11 10 6 4 3 4 4 5 8 8 6 5 4 5 5 4 5 7 8 7 5 4 4 5 5 5 5 5 5 5 4 4 4 4 5 5 5 4 3 2 1 3 3 2 2 5 11 11 6 3 3 5 7 9 10 9 7 5 4 4 4 3 4 7 8 6 4 4 4 4 4 5 4 3 4 5 4 3 3 4 4 5 5
11 10 10 10 11 9 9 9 8 7 4 5 7 9 9 7 7 7 5 4 4 7 9 8 6 4 4 5 6 6 5 5 6 5 4 4 5 5 6 6 6 5 4 1 1 1 3 3 4 9 12 8 2 2 5 7 6 6 7 7 5 4 3 3 4 4 5 4 4 4 4 4 4 5 5 5 5 4 4 5 5 4 3 3 5 5 5
Wind_Direction
292 264 237 239 257 307 313 308 327 352 3 355 1 32 35 42 68 54 325 48 75 89 174 255 273 295 38 38 21 30 55 44 19 14 13 25 77 105 125 118 79 39 10 337 330 17 138 143 142 146 154 157 159 163 167 174 175 171 175 176 169 168 175 181 187 195 206 211 216 218 211 208 211 214 219 221 215 207 203 204 208 213 217 218 217 219 224
308 308 294 260 210 239 295 308 339 356 6 17 22 32 42 52 66 77 60 46 56 59 24 316 298 328 15 28 11 25 54 58 49 33 10 5 28 56 110 126 115 65 34 19 9 19 34 63 95 108 126 144 153 162 166 166 166 165 169 174 177 177 171 165 177 270 1 31 188 213 201 188 196 206 216 215 186 176 188 199 205 209 214 217 216 218 221
303 298 298 287 229 198 251 333 2 2 13 35 36 24 28 40 51 69 74 52 41 49 46 37 4 358 8 8 360 11 54 76 77 66 36 15 14 15 13 20 81 94 54 31 45 59 50 40 40 39 30 39 83 114 128 129 131 140 150 148 157 178 181 178 195 216 297 352 168 186 182 173 179 188 197 197 179 168 179 192 199 202 205 206 207 213 215
305 288 290 283 261 197 94 31 15 6 14 47 56 36 30 36 43 60 65 52 351 349 49 82 71 41 28 3 342 335 10 64 72 74 78 72 51 41 33 18 32 76 78 38 41 70 74 67 58 50 38 27 29 36 43 67 99 119 137 144 137 130 95 243 208 206 215 229 228 217 208 202 191 190 193 188 181 180 186 193 200 204 206 205 208 216 217
298 294 302 296 286 100 93 31 23 24 20 47 72 64 48 43 49 61 63 85 249 342 46 84 80 62 47 20 345 327 345 41 58 48 65 79 75 66 60 47 44 66 75 53 41 56 66 67 64 61 59 53 52 60 70 310 269 237 238 217 182 154 139 222 229 221 220 227 229 221 211 208 202 199 202 200 194 192 194 197 198 202 209 215 219 220 218
292 301 313 329 11 89 155 265 78 77 51 56 66 60 47 44 52 87 115 137 116 58 61 76 76 67 52 33 17 357 352 22 58 55 60 69 70 68 65 56 50 60 70 64 57 62 67 66 66 64 61 57 56 65 79 73 67 208 229 217 182 178 177 188 207 218 225 232 234 231 227 229 228 221 215 211 206 203 204 203 198 196 199 209 216 214 208
300 318 338 2 26 64 299 324 15 55 78 88 81 59 42 40 43 55 67 75 86 80 68 66 74 74 57 39 30 21 16 22 34 51 62 57 50 55 59 56 52 55 68 77 72 73 78 79 78 77 78 80 76 74 77 76 74 82 111 140 149 161 170 183 195 201 211 223 231 235 238 240 241 239 234 229 226 224 222 218 220 223 218 214 216 214 211
224 7 8 22 249 306 350 11 10 15 42 78 81 55 29 20 27 39 45 56 71 75 58 30 46 69 56 38 27 24 33 42 41 47 57 50 38 36 39 49 58 55 61 73 76 78 84 86 87 88 89 89 88 86 86 86 86 92 108 120 127 143 150 165 185 194 204 216 223 228 233 237 237 236 236 235 234 238 239 236 238 243 242 234 226 222 221
144 113 111 145 137 337 353 9 349 351 4 1 54 87 28 357 18 40 45 56 69 77 73 28 2 40 58 43 20 7 16 50 64 62 64 61 52 43 39 42 48 49 48 58 70 77 81 85 88 90 89 87 86 84 79 78 82 86 86 84 82 89 112 133 150 165 186 211 224 231 236 239 239 238 239 240 239 241 245 246 246 247 247 244 239 235 230
337 127 146 100 105 295 296 311 316 333 359 356 27 99 37 344 21 48 52 61 77 92 101 98 76 59 55 48 22 356 352 22 65 67 68 71 65 55 51 51 52 52 48 50 59 63 63 70 81 88 88 85 81 76 70 66 67 68 67 68 71 74 84 103 116 116 124 156 203 228 236 239 244 246 247 250 251 249 249 249 246 240 238 238 239 242 242
258 184 143 96 123 218 250 276 302 337 4 350 4 76 23 338 24 56 58 61 76 95 109 118 126 109 86 70 39 356 350 22 63 65 61 70 72 66 63 62 62 61 57 55 59 61 57 56 63 73 78 79 78 74 69 63 59 56 55 57 61 65 69 79 88 89 91 98 99 96 103 134 185 264 263 258 255 248 242 238 231 223 223 225 228 236 242
273 271 87 85 99 241 268 278 307 345 356 350 20 68 348 339 25 54 58 61 77 107 126 121 104 110 135 152 150 149 176 86 94 95 85 78 79 74 68 66 67 65 59 54 52 53 53 55 60 65 69 70 71 71 68 63 58 52 49 50 54 58 58 59 65 69 68 66 67 73 75 74 96 127 138 159 193 207 213 216 216 222 228 233 236 239 242
356 41 64 87 99 298 288 307 341 345 336 16 57 121 235 343 38 47 52 65 81 97 118 126 92 72 117 132 138 147 158 113 98 101 102 95 89 82 75 72 72 69 64 59 53 48 49 53 56 61 65 64 62 64 68 68 64 60 57 54 53 57 57 54 54 59 61 57 52 57 63 52 69 122 122 132 145 150 161 173 184 200 216 228 234 235 235
13 76 95 109 107 325 307 328 3 0 0 79 91 189 191 98 70 54 44 63 84 79 82 101 105 106 112 120 129 128 111 93 83 83 89 93 92 91 87 80 77 75 71 67 63 57 56 59 59 62 65 61 56 56 57 61 65 68 66 60 53 54 59 60 59 58 56 54 53 57 62 65 73 75 73 125 136 122 132 139 135 131 125 120 129 150 167
10 83 76 90 113 351 350 17 27 16 41 144 154 116 95 85 86 75 38 40 84 95 98 108 119 129 129 125 129 125 109 104 98 88 87 87 87 92 92 85 83 83 77 72 70 67 68 71 71 73 74 70 65 57 48 47 56 62 63 64 59 54 53 57 59 57 50 46 50 54 53 58 65 59 53 75 110 126 142 141 130 122 117 117 118 117 116
32 74 72 123 136 50 25 49 80 69 90 120 108 92 90 84 89 89 44 33 74 102 116 124 132 139 134 129 132 127 115 111 107 102 99 96 94 95 95 93 96 95 90 86 85 82 79 77 77 80 80 77 74 66 56 55 60 60 61 65 63 56 50 46 45 47 44 45 51 53 47 46 47 44 44 56 69 82 119 149 145 132 124 122 121 116 112
71 107 143 152 131 97 60 62 82 82 76 73 71 78 91 91 87 100 87 65 78 103 118 129 138 143 143 145 140 128 123 124 119 115 111 109 108 107 104 104 107 106 103 102 99 93 89 88 89 90 87 80 72 65 64 68 70 69 64 57 54 57 56 48 44 43 42 47 55 57 55 52 50 48 48 50 51 55 64 84 130 146 141 132 124 121 121
76 79 107 125 113 96 81 68 64 67 68 69 70 68 72 79 74 75 93 97 96 103 112 124 135 143 147 146 139 135 134 128 123 126 128 125 122 121 118 116 117 117 116 113 107 101 97 97 100 102 102 99 92 85 86 86 83 83 75 63 58 56 48 42 42 35 28 38 51 53 56 60 61 55 47 40 38 41 46 54 71 119 147 146 141 138 135
97 67 66 97 100 93 89 81 71 69 65 63 74 83 87 92 80 69 84 105 106 90 89 111 132 142 134 120 120 132 137 135 137 144 152 152 145 140 135 131 126 123 122 117 114 111 106 106 109 109 108 110 113 114 114 105 94 91 86 77 70 61 45 36 33 30 33 50 54 46 50 60 64 59 49 38 34 33 32 40 56 72 89 106 125 132 124
104 105 73 83 88 87 94 96 88 83 75 62 65 82 93 99 98 82 77 95 114 113 107 121 134 137 129 119 118 126 137 147 151 156 164 163 153 152 156 151 141 133 126 123 122 117 111 114 119 117 112 113 118 121 119 114 109 103 93 82 74 71 68 54 40 40 52 63 55 39 36 35 36 43 42 37 37 36 32 35 50 64 73 81 93 105 110
96 102 85 85 82 70 72 87 88 91 93 74 56 63 80 90 98 94 70 66 92 119 134 138 134 131 138 146 145 141 150 157 155 159 168 170 165 171 178 169 158 146 132 128 132 127 118 121 124 123 119 117 119 122 120 121 123 116 104 99 92 86 85 75 58 51 51 52 56 64 65 51 26 24 33 32 32 36 36 38 47 60 73 82 92 103 108
138 155 121 103 108 108 98 92 87 90 97 87 63 62 74 79 87 101 95 69 73 95 124 142 144 140 147 164 168 160 158 160 160 164 172 171 170 177 182 174 163 151 139 137 141 141 143 143 135 131 129 126 126 125 120 122 126 112 106 118 128 124 107 86 76 70 58 52 60 74 78 73 67 62 60 55 47 47 49 49 52 59 69 78 86 96 99
162 162 133 115 120 138 147 146 139 121 109 105 89 71 71 77 83 96 109 104 99 112 126 139 145 147 156 171 175 162 142 159 165 171 177 178 179 186 189 180 162 146 138 142 142 139 145 152 145 143 141 138 142 143 121 95 89 94 106 110 107 115 128 98 80 81 73 59 59 65 70 74 77 82 89 88 77 71 70 69 68 68 70 74 74 68 70
137 145 152 153 141 142 157 158 139 103 91 104 106 81 61 56 52 65 77 64 65 111 123 128 143 154 163 170 169 158 150 173 176 178 184 185 185 192 191 174 158 145 141 145 146 141 141 140 134 130 125 122 134 152 167 109 71 84 103 107 97 93 101 90 80 85 89 76 64 61 61 60 61 74 109 110 97 92 89 88 89 86 79 75 72 67 66
134 151 163 155 135 141 149 139 114 96 93 102 100 80 68 55 24 35 77 52 23 54 119 141 141 136 150 157 159 164 178 193 194 192 196 190 184 189 185 170 162 161 160 159 155 150 152 154 147 137 130 130 132 122 129 158 110 82 93 107 106 100 97 92 89 92 94 92 88 84 72 52 49 62 107 160 156 135 124 114 111 104 89 79 77 78 74
133 142 135 117 126 142 136 124 119 124 124 121 119 118 115 101 356 4 107 95 45 39 78 127 140 135 147 148 144 162 181 193 204 208 203 193 188 191 186 177 172 171 172 172 167 158 156 161 164 165 162 157 150 129 115 137 142 111 90 94 100 97 92 93 97 98 99 102 104 112 129 99 44 56 75 1 294 229 187 164 143 127 109 97 93 87 73
110 114 118 133 184 146 117 123 131 133 128 128 139 155 154 155 186 183 114 105 86 60 61 90 116 126 153 167 156 161 176 191 208 214 213 213 212 208 200 192 189 185 185 187 184 175 171 171 175 186 191 173 162 165 151 138 139 132 112 98 91 81 76 84 95 98 102 105 107 126 148 142 76 48 36 12 6 200 198 195 176 156 140 122 109 94 72
100 92 98 115 132 113 106 120 132 136 136 129 128 153 165 170 188 192 143 133 147 134 104 80 78 88 92 102 150 172 189 206 217 216 218 225 229 229 224 215 212 212 211 210 208 198 187 181 180 186 188 177 175 188 173 135 129 127 117 119 137 111 58 47 67 91 103 102 93 106 139 138 106 56 27 28 43 59 80 106 135 159 161 140 112 95 77
121 105 91 91 101 104 101 107 121 131 139 139 140 207 201 171 159 41 125 147 157 142 126 123 121 105 87 49 65 163 184 207 220 226 235 238 237 237 233 225 226 235 230 221 217 212 202 194 187 186 189 186 186 194 185 151 143 149 144 154 168 163 21 11 124 115 98 93 88 86 99 109 90 63 60 64 54 49 57 60 63 120 147 135 109 91 77
126 116 106 102 110 118 122 132 143 149 161 158 163 201 190 130 94 21 36 102 105 114 138 146 152 157 169 193 202 133 163 207 217 225 239 245 246 248 245 229 220 228 230 223 217 213 210 205 197 196 200 198 193 197 194 176 172 182 172 163 170 172 8 108 153 137 111 94 93 77 75 88 84 66 67 76 63 54 55 53 66 100 120 122 106 89 70
127 123 121 120 130 151 164 161 154 161 168 125 108 90 100 120 129 172 182 123 114 136 143 142 147 160 156 149 134 105 307 272 244 231 239 248 250 250 243 227 215 216 221 220 214 212 214 213 208 208 210 203 198 201 198 183 178 181 175 175 187 197 113 139 155 156 159 162 136 78 77 100 99 83 82 86 74 66 66 70 87 107 115 112 99 80 58
132 133 138 141 149 183 186 152 141 162 171 144 139 178 208 137 128 169 167 150 150 132 116 122 136 140 115 75 12 308 293 294 290 273 257 251 253 252 247 241 233 224 218 217 215 213 215 215 213 215 216 210 206 206 199 190 189 186 179 183 192 181 149 139 152 164 166 161 154 150 137 119 91 73 81 87 80 75 75 78 91 106 108 96 82 65 48
146 154 170 170 172 193 195 162 160 186 182 162 159 164 140 103 43 20 42 44 36 43 60 80 97 82 6 316 302 297 293 289 286 279 268 257 252 250 252 257 253 240 229 228 227 222 219 219 219 220 219 214 211 208 201 195 196 194 189 191 192 179 162 149 152 165 167 158 158 164 155 130 95 83 86 86 82 82 81 78 85 100 105 91 75 64 58
160 165 167 165 168 177 178 168 171 179 161 141 143 150 148 154 141 66 42 23 2 359 9 7 353 341 328 313 302 294 287 282 278 277 275 270 262 255 252 256 258 249 240 238 238 233 229 227 223 220 218 213 209 207 204 200 197 192 185 181 181 180 172 157 153 166 171 161 150 143 131 128 127 109 93 91 89 86 81 76 83 105 114 97 77 70 70
160 131 114 116 121 123 125 132 140 140 136 134 132 127 122 120 116 99 64 323 292 292 298 301 299 297 296 296 292 284 280 282 285 286 289 294 297 292 277 257 247 246 244 240 238 237 236 232 228 225 222 216 208 206 207 204 197 189 182 177 175 174 170 166 166 166 160 153 148 143 141 140 134 115 113 135 115 98 91 88 91 104 113 102 81 77 80
167 119 100 106 109 106 105 103 95 97 102 98 79 65 54 46 36 307 263 264 274 284 290 296 299 301 306 312 317 317 313 311 309 309 310 309 307 309 304 268 235 232 236 236 237 241 242 239 235 232 227 216 206 206 207 200 191 188 190 193 191 183 174 179 186 166 150 145 144 145 144 141 130 117 122 137 132 117 114 110 102 99 100 92 78 77 84
153 129 116 118 121 116 113 110 100 92 94 99 99 93 8 305 300 296 305 313 314 318 322 324 322 322 320 316 311 306 303 304 309 311 314 314 312 313 312 288 246 229 226 230 240 252 255 249 244 242 235 221 213 214 211 200 193 192 188 186 186 183 178 189 202 187 175 171 165 156 148 143 148 148 143 143 143 131 121 117 109 98 92 86 75 75 84
133 126 122 125 130 133 132 133 138 141 137 133 131 107 69 44 26 13 353 334 326 324 323 323 327 330 325 314 303 294 288 290 300 311 321 332 337 336 334 321 292 263 247 243 246 254 255 249 244 241 233 223 221 223 215 198 190 188 183 180 181 179 176 196 229 216 200 189 178 170 162 147 146 149 144 141 139 128 116 110 100 87 92 93 80 76 84
123 123 127 134 142 144 141 138 134 117 90 73 57 46 40 29 17 4 344 330 330 341 347 347 345 338 328 321 320 321 320 323 331 336 337 337 334 331 324 313 302 294 285 272 261 257 254 248 240 233 225 217 216 215 206 190 180 176 172 171 172 171 179 234 261 221 192 175 162 156 154 146 140 131 116 117 122 118 109 103 92 95 114 115 94 83 87
130 137 145 149 142 128 116 108 98 82 71 66 54 42 33 21 8 356 348 349 355 356 351 346 338 328 323 324 330 335 335 334 334 334 328 323 320 314 301 294 291 289 287 280 270 261 253 244 236 229 219 208 203 199 193 187 180 168 157 151 147 152 184 264 268 167 163 163 158 153 153 155 157 147 124 115 114 112 111 117 116 115 117 113 94 87 92
134 137 134 122 110 103 100 96 91 84 76 68 55 39 21 7 357 347 343 345 343 336 333 333 329 324 327 331 329 324 324 324 324 319 314 314 312 296 281 281 286 287 280 270 261 255 248 238 229 217 201 192 191 189 186 185 184 178 176 183 173 166 209 252 241 150 146 154 154 149 147 157 163 162 143 127 124 124 130 136 131 122 117 111 93 88 91
123 118 110 104 105 109 110 111 112 106 95 80 53 10 338 327 334 336 332 328 327 330 335 336 334 333 338 338 330 323 323 326 326 320 316 317 312 296 284 280 277 273 263 250 240 236 230 221 209 194 180 175 175 178 181 187 194 200 212 215 199 183 196 216 201 161 142 134 130 127 126 129 131 131 131 132 132 141 154 148 132 118 114 113 109 104 98
115 113 114 118 122 119 112 108 105 101 99 104 90 11 4 0 345 331 325 327 334 337 338 341 345 345 343 340 338 339 339 334 325 315 310 343 353 323 289 255 237 229 218 205 196 191 188 184 178 174 170 168 170 177 184 182 178 186 198 196 183 169 157 144 132 126 121 116 114 122 134 134 123 115 122 131 126 118 131 137 130 122 119 115 111 108 104
119 122 123 119 112 106 105 112 121 121 98 72 62 46 6 328 304 298 308 331 342 340 341 355 3 358 351 355 10 15 4 348 331 305 226 128 67 41 75 145 149 149 153 156 157 160 165 166 162 160 161 162 162 163 162 155 156 175 185 176 159 144 132 122 114 109 104 104 128 153 156 153 145 130 127 135 125 106 104 115 123 122 117 111 105 105 106
124 122 115 108 105 108 118 126 122 109 88 59 346 266 253 254 266 292 350 12 359 355 9 30 26 8 2 21 56 63 49 29 14 3 106 128 102 71 77 125 132 135 142 147 148 148 149 149 147 143 143 147 150 149 143 134 125 139 152 148 138 128 120 118 121 123 113 101 112 129 133 141 160 163 146 136 130 113 101 106 117 118 113 109 112 117 113
122 116 116 119 124 127 129 118 101 101 158 234 244 239 221 201 196 114 64 57 31 24 32 49 49 23 8 90 129 121 108 84 59 42 54 105 123 136 155 146 136 134 138 141 142 143 145 150 152 151 149 148 146 147 149 150 137 117 127 126 119 119 122 123 127 137 139 120 113 122 121 117 129 144 141 133 128 113 85 85 110 120 122 123 127 125 113
129 129 137 144 143 137 138 146 161 192 217 230 230 203 162 148 139 100 72 69 67 63 60 63 68 63 59 115 140 141 132 110 87 66 49 63 104 138 149 139 128 130 137 137 134 134 140 150 160 168 166 157 146 144 151 151 144 157 174 158 133 142 168 169 152 144 150 149 138 141 139 118 93 95 112 125 126 112 77 78 114 128 129 130 131 124 118
144 146 146 146 148 154 167 183 199 208 213 212 181 125 118 114 97 79 79 80 87 94 91 81 81 91 91 82 103 138 149 132 113 106 94 80 98 124 133 124 121 127 130 124 116 114 123 140 158 182 196 195 187 183 177 161 127 122 164 166 150 142 159 159 148 143 156 160 133 125 132 139 100 69 79 102 123 136 139 143 152 161 157 125 138 142 142
145 143 144 153 165 171 179 198 211 205 180 151 124 106 101 107 143 160 140 121 114 118 114 104 98 109 113 95 94 107 121 135 143 144 141 136 137 145 139 109 121 139 149 141 128 116 96 86 132 158 172 177 176 179 186 200 228 155 148 147 138 121 121 129 131 131 155 175 159 132 133 170 181 154 107 125 165 186 180 166 169 190 209 176 133 133 149
153 152 157 166 166 162 171 196 192 146 137 144 147 149 162 190 180 150 138 139 142 138 132 127 129 142 152 146 133 127 125 127 136 144 151 154 157 167 175 154 133 130 144 156 153 142 115 29 209 165 152 145 142 142 139 133 138 137 132 129 126 119 118 124 123 113 118 135 142 139 142 162 171 172 179 186 187 183 172 159 159 181 208 214 188 169 183
168 170 169 158 146 149 173 191 154 126 139 165 167 169 182 193 166 142 146 166 163 143 131 126 126 138 149 146 137 136 142 141 136 142 159 165 156 157 164 160 148 135 125 119 173 207 210 237 243 178 163 153 139 124 131 134 132 133 131 127 120 115 120 130 137 136 135 137 137 139 151 171 174 173 180 185 187 191 193 184 175 193 229 222 199 191 190
168 166 162 149 145 163 189 186 168 162 178 187 181 184 189 186 170 160 166 183 173 152 146 146 151 161 169 159 146 148 160 167 158 155 163 170 167 167 167 164 164 169 173 179 313 231 198 192 184 175 171 164 103 79 148 149 135 131 138 141 138 140 145 144 152 174 188 184 171 176 196 205 202 196 196 198 203 211 207 196 192 207 223 202 178 177 186